Location: Newark
(35.0589°N, 135.9944°E)
Time: 20:36:28
(UTC+00:00)

Hubble Space Telescope - Pass Details

Date: 01 October 2019
Orbit: 536 x 540 km, 28.5° (Epoch: 16 October)

Event Time Altitude Azimuth Distance (km) Brightness Sun altitude
Rises 10:07:02 0° 231° (SW) 2,671 4.9 -18.4°
Reaches altitude 10° 10:09:42 10° 215° (SW) 1,781 3.7 -18.9°
Enters shadow 10:12:38 21° 169° (S) 1,229 2.4 -19.5°
